SCP
0 0 0 0 0 0 0 0 0 0 0 0 0 0 0 0 0 0 0 0 0 0 0 0 0 0 0 0 0 0 0 0 0 0 0 0 0 0 0 0 0 0 0 0 0 0 0 0 0
0 0 0 0 0 0 0 0 0 0 0 0 0 0 0 0 0 0 0 0 0 0 0 0 0 0 0 0 0 0 0 0 0 0 0 0 0 0 0 0 0 0 0 0 0 0 0 0 0
0 0 0 0 0 0 0 0 0 0 0 0 0 0 0 0 0 0 0 0 0 0 0 0 0 0 0 0 0 0 0 0 0 0 0 0 0 0 0 0 0 0 0 0 0 0 0 0 0
0 0 0 0 0 0 0 0 0 0 0 0 0 0 0 0 0 0 0 0 0 0 0 0 0 0 0 0 0 0 0 0 0 0 0 0 0 0 0 0 0 0 0 0 0 0 0 0 0
0 0 0 0 0 0 0 0 0 0 0 0 0 0 0 0 0 0 0 0 0 0 0 0 0 0 0 0 0 0 0 0 0 0 0 0 0 0 0 0 0 0 0 0 0 0 0 0 0
0 0 0 0 0 0 0 0 0 0 0 0 0 0 0 0 0 0 0 0 0 0 0 0 0 0 0 0 0 0 0 0 0 0 0 0 0 0 0 0 0 0 0 0 0 0 0 0 0
0 0 0 0 0 0 0 0 0 0 0 0 0 0 0 0 0 0 0 0 0 0 0 0 0 0 0 0 0 0 0 0 0 0 0 0 0 0 0 0 0 0 0 0 0 0 0 0 0
0 0 0 0 0 0 0 0 0 0 0 0 0 0 0 0 0 0 0 0 0 0 0 0 0 0 0 0 0 0 0 0 0 0 0 0 0 0 0 0 0 0 0 0 0 0 0 0 0
0 0 0 0 0 0 0 0 0 0 0 0 0 0 0 0 0 0 0 0 0 0 0 0 0 0 0 0 0 0 0 0 0 0 0 0 0 0 0 0 0 0 0 0 0 0 0 0 0
0 0 0 0 0 0 0 0 0 0 0 0 0 0 0 0 0 0 0 0 0 0 0 0 0 0 0 0 0 0 0 0 0 0 0 0 0 0 0 0 0 0 0 0 0 0 0 0 0
0 0 0 0 0 0 0 0 0 0 0 0 0 0 0 0 0 0 0 0 0 0 0 0 0 0 0 0 0 0 0 0 0 0 0 0 0 0 0 0 0 0 0 0 0 0 0 0 0
0 0 0 0 0 0 0 0 0 0 0 0 0 0 0 0 0 0 0 0 0 0 0 0 0 0 0 0 0 0 0 0 0 0 0 0 0 0 0 0 0 0 0 0 0 0 0 0 0
0 0 0 0 0 0 0 0 0 0 0 0 0 0 0 0 0 0 0 0 0 0 0 0 0 0 0 0 0 0 0 0 0 0 0 0 0 0 0 0 0 0 0 0 0 0 0 0 0
0 0 0 0 0 0 0 0 0 0 0 0 0 0 0 0 0 0 0 0 0 0 0 0 0 0 0 0 0 0 0 0 0 0 0 0 0 0 0 0 0 0 0 0 0 0 0 0 0
0 0 0 0 0 0 0 0 0 0 0 0 0 0 0 0 0 0 0 0 0 0 0 0 0 0 0 0 0 0 0 0 0 0 0 0 0 0 0 0 0 0 0 0 0 0 0 0 0
0 0 0 0 0 0 0 0 0 0 0 0 0 0 0 0 0 0 0 0 0 0 0 0 0 0 0 0 0 0 0 0 0 0 0 0 0 0 0 0 0 0 0 0 0 0 0 0 0
0 0 0 0 0 0 0 0 0 0 0 0 0 0 0 0 0 0 0 0 0 0 0 0 0 0 0 0 0 0 0 0 0 0 0 0 0 0 0 0 0 0 0 0 0 0 0 0 0
0 0 0 0 0 0 0 0 0 0 0 0 0 0 0 0 0 0 0 0 0 0 0 0 0 0 0 0 0 0 0 0 0 0 0 0 0 0 0 0 0 0 0 0 0 0 0 0 0
0 0 0 0 0 0 0 0 0 0 0 0 0 0 0 0 0 0 0 0 0 0 0 0 0 0 0 0 0 0 0 0 0 0 0 0 0 0 0 0 0 0 0 0 0 0 0 0 0
0 0 0 0 0 0 0 0 0 0 0 0 0 0 0 0 0 0 0 0 0 0 0 0 0 0 0 0 0 0 0 0 0 0 0 0 0 0 0 0 0 0 0 0 0 0 0 0 0
0 0 0 0 0 0 0 0 0 0 0 0 0 0 0 0 0 0 0 0 0 0 0 0 0 0 0 0 0 0 0 0 0 0 0 0 0 0 0 0 0 0 0 0 0 0 0 0 0
0 0 0 0 0 0 0 0 0 0 0 0 0 0 0 0 0 0 0 0 0 0 0 0 0 0 0 0 0 0 0 0 0 0 0 0 0 0 0 0 0 0 0 0 0 0 0 0 0
0 0 0 0 0 0 0 0 0 0 0 0 0 0 0 0 0 0 0 0 0 0 0 0 0 0 0 0 0 0 0 0 0 0 0 0 0 0 0 0 0 0 0 0 0 0 0 0 0
0 0 0 0 0 0 0 0 0 0 0 0 0 0 0 0 0 0 0 0 0 0 0 0 0 0 0 0 0 0 0 0 0 0 0 0 0 0 0 0 0 0 0 0 0 0 0 0 0
0 0 0 0 0 0 0 0 0 0 0 0 0 0 0 0 0 0 0 0 0 0 0 0 0 0 0 0 0 0 0 0 0 0 0 0 0 0 0 0 0 0 0 0 0 0 0 0 0
0 0 0 0 0 0 0 0 0 0 0 0 0 0 0 0 0 0 0 0 0 0 0 0 0 0 0 0 0 0 0 0 0 0 0 0 0 0 0 0 0 0 0 0 0 0 0 0 0
0 0 0 0 0 0 0 0 0 0 0 0 0 0 0 0 0 0 0 0 0 0 0 0 0 0 0 0 0 0 0 0 0 0 0 0 0 0 0 0 0 0 0 0 0 0 0 0 0
0 0 0 0 0 0 0 0 0 0 0 0 0 0 0 0 0 0 0 0 0 0 0 0 0 0 0 0 0 0 0 0 0 0 0 0 0 0 0 0 0 0 0 0 0 0 0 0 0
0 0 0 0 0 0 0 0 0 0 0 0 0 0 0 0 0 0 0 0 0 0 0 0 0 0 0 0 0 0 0 0 0 0 0 0 0 0 0 0 0 0 0 0 0 0 0 0 0
0 0 0 0 0 0 0 0 0 0 0 0 0 0 0 0 0 0 0 0 0 0 0 0 0 0 0 0 0 0 0 0 0 0 0 0 0 0 0 0 0 0 0 0 0 0 0 0 0
Wind_Speed
12 9 5 3 3 1 7 4 6 5 6 6 4 6 11 11 8 8 4 6 4 11 12 9 9 10 10 10 10 10 10 11 11 11 11 12 13 14 15 16 16 16 17 16 16 16 16 15 14
8 7 3 3 3 4 6 6 8 9 6 3 1 7 10 8 8 7 5 4 3 10 11 9 9 10 10 9 9 9 10 10 10 10 10 11 13 14 15 16 16 16 16 16 16 16 15 15 14
7 5 3 3 3 4 6 8 9 7 4 1 4 9 7 6 7 5 3 2 4 7 9 11 9 9 10 9 8 8 9 9 9 9 9 10 12 14 15 15 16 16 16 16 16 16 15 15 14
4 3 3 3 6 8 8 8 8 8 5 1 5 9 7 6 4 4 3 3 6 7 10 10 8 8 9 8 8 8 8 8 8 8 8 9 11 13 14 15 16 16 16 16 16 16 16 15 15
3 3 3 1 6 5 7 7 3 5 5 3 4 8 6 4 7 7 6 8 8 7 7 8 6 6 8 8 8 8 8 8 8 7 8 8 10 11 13 14 15 15 15 15 15 15 15 15 15
3 3 3 3 6 4 5 4 1 4 7 3 4 8 5 5 6 6 7 9 9 8 7 6 5 4 5 7 7 8 8 7 7 7 7 7 8 10 12 13 14 14 14 14 14 14 14 14 14
3 3 5 1 7 5 5 2 1 4 7 5 6 7 7 5 3 3 6 7 8 7 6 5 3 1 3 4 5 6 7 6 6 6 6 6 7 9 10 11 12 13 12 12 13 13 13 13 13
4 3 4 2 6 6 7 4 4 4 7 4 7 5 6 2 2 1 5 7 7 6 6 5 4 2 0 3 5 5 5 5 5 5 5 6 7 8 9 9 10 11 11 11 11 11 11 11 12
3 3 4 2 2 6 8 5 3 3 7 5 6 5 3 1 2 4 4 6 6 6 5 5 5 4 3 1 4 5 5 4 4 4 6 5 4 6 6 8 9 9 9 9 10 8 7 7 8
2 2 3 5 5 5 7 5 6 5 6 6 6 6 4 4 4 5 6 7 6 6 5 4 4 3 3 2 1 2 3 3 2 2 4 3 2 4 6 9 8 8 7 8 8 5 3 3 3
2 3 3 5 8 4 5 2 3 3 3 5 7 7 5 6 7 7 7 6 6 6 6 6 5 2 1 1 1 1 2 3 4 5 4 3 4 4 5 4 4 4 4 3 4 2 3 4 3
3 3 4 4 4 3 2 2 2 4 5 5 6 5 6 7 7 6 6 6 6 7 7 7 6 2 0 2 3 4 5 5 5 7 7 5 4 5 5 4 4 3 2 3 3 3 4 4 4
3 2 1 4 2 2 3 1 1 7 6 5 5 5 6 6 6 6 5 6 6 6 7 7 6 3 3 5 6 7 7 7 7 6 7 7 6 6 6 5 5 5 4 4 4 4 4 4 4
3 1 3 4 4 2 2 3 2 7 8 6 5 5 6 6 5 5 6 6 6 6 6 7 7 7 8 8 8 7 7 7 7 8 9 9 7 7 7 7 6 5 5 4 4 4 3 3 3
1 3 5 7 6 4 3 6 7 8 9 7 6 6 5 5 5 6 5 5 5 5 5 6 7 9 10 11 10 8 7 8 8 8 9 10 8 8 7 7 6 5 5 5 5 5 4 4 4
4 4 5 7 8 5 5 8 5 9 9 8 8 7 6 5 5 5 5 5 5 4 5 6 6 9 10 10 9 8 8 8 7 7 8 10 10 9 8 7 6 6 5 5 5 5 4 5 4
5 6 8 5 8 7 7 6 7 7 8 8 8 8 7 7 6 6 5 5 4 4 5 7 7 9 10 10 10 10 9 9 8 7 7 9 10 10 8 7 7 6 6 6 5 5 5 5 5
6 7 7 7 9 8 7 7 6 9 9 8 9 8 8 8 7 6 5 4 4 5 6 7 8 8 8 8 9 8 10 9 8 7 8 9 9 9 8 8 9 7 7 7 6 6 6 5 5
8 7 7 3 6 5 8 11 9 11 10 9 9 10 9 8 8 7 6 5 5 5 6 6 7 6 5 5 5 6 6 6 7 7 9 10 9 9 8 7 8 7 8 8 8 5 6 7 6
10 9 9 6 4 2 6 11 9 13 13 12 13 12 11 10 9 8 7 6 6 6 5 6 5 5 5 5 5 6 6 6 6 6 8 9 9 9 9 8 7 7 7 9 9 7 5 6 8
9 10 10 7 3 4 4 9 13 11 12 11 11 11 11 13 12 10 9 7 7 6 5 5 6 7 8 8 8 8 6 5 5 6 6 7 8 9 8 8 7 7 7 6 7 7 7 5 6
9 8 9 8 5 5 7 7 8 10 11 13 11 10 11 12 12 11 10 9 8 6 6 6 7 8 8 8 7 8 7 7 5 5 5 7 8 8 8 8 8 7 6 7 7 7 5 5 4
3 3 1 4 5 6 6 10 8 8 10 15 14 12 11 12 13 12 11 10 8 7 6 6 6 7 7 7 8 10 10 9 7 6 7 7 6 7 7 7 7 7 6 6 7 6 7 5 4
7 4 2 0 2 7 10 13 10 10 13 12 17 16 13 13 12 12 10 9 8 7 6 6 7 7 7 8 9 10 12 11 10 8 7 5 4 5 6 7 6 6 5 6 5 5 6 5 5
7 6 2 4 6 10 10 13 11 7 6 9 14 17 15 14 14 14 13 11 10 9 8 7 8 8 7 8 9 9 10 10 10 9 7 6 4 4 5 5 5 5 5 5 5 5 5 5 4
11 10 9 8 7 6 6 12 7 3 4 4 6 13 15 15 14 14 13 12 11 10 9 9 9 8 8 9 9 8 8 7 7 7 7 6 5 4 5 5 5 5 5 5 4 4 3 4 4
8 10 8 4 1 4 9 8 5 1 2 2 7 13 16 16 15 14 13 12 11 11 10 10 10 9 9 9 9 8 8 8 8 8 7 6 5 5 5 5 5 5 4 4 4 3 3 3 3
4 7 5 7 6 8 10 12 10 10 13 11 11 15 16 16 15 15 14 12 11 10 8 9 9 9 9 9 8 7 8 8 8 8 8 7 6 5 6 5 5 4 3 3 3 2 2 3 3
9 6 8 6 6 6 8 10 5 15 15 17 17 17 19 20 19 17 14 12 11 10 9 9 9 9 9 9 8 8 8 8 8 7 8 7 6 6 6 5 4 4 3 2 1 1 1 2 2
11 12 13 9 9 8 9 10 3 2 6 13 16 16 17 17 16 15 14 13 12 12 11 10 10 10 9 9 8 8 8 8 8 8 8 7 7 6 6 5 4 3 3 2 1 1 1 2 3
Wind_Direction
300 278 276 277 270 113 86 82 88 88 75 56 31 54 67 49 53 87 70 24 66 113 124 129 122 119 113 109 105 104 102 99 95 92 89 88 90 87 82 77 71 66 61 56 52 47 42 38 36
303 306 274 250 253 117 99 100 76 66 84 116 96 89 83 69 62 82 62 18 70 117 130 132 124 119 113 109 108 107 105 102 98 93 90 91 93 90 85 80 73 68 62 56 52 48 43 39 37
279 273 273 262 327 83 108 99 97 97 89 83 78 50 53 39 38 60 43 30 80 102 118 120 126 123 118 115 114 113 111 107 103 98 94 95 98 95 89 83 77 72 66 59 53 49 45 41 40
289 251 244 264 66 46 99 107 121 126 121 32 98 83 75 31 37 62 55 53 81 88 105 117 123 126 128 128 126 124 122 119 115 109 104 102 103 101 96 90 84 77 70 63 57 52 48 44 42
234 270 255 69 86 69 74 84 108 132 118 107 93 98 85 42 33 53 48 43 59 59 81 113 105 120 134 138 139 138 136 134 130 123 117 113 112 111 105 99 92 85 78 70 63 57 52 49 45
271 268 269 167 120 115 99 100 169 101 98 79 85 104 99 61 26 34 50 50 52 48 54 81 80 104 130 148 152 151 149 149 146 140 132 127 124 122 116 109 103 96 88 79 70 63 58 54 49
305 292 290 246 123 142 120 142 184 118 104 56 3 99 122 88 4 33 81 74 60 49 45 45 53 111 145 154 161 161 160 159 158 153 144 138 134 131 126 120 114 108 99 89 79 70 64 59 53
320 297 283 295 140 147 128 128 40 30 90 53 15 74 110 63 298 123 103 87 74 58 39 29 23 6 189 174 168 160 157 158 160 159 156 153 148 138 134 130 126 120 112 100 89 78 72 65 58
298 281 270 269 158 134 132 142 101 31 90 70 56 69 83 107 177 142 121 91 75 63 42 23 6 1 344 331 155 160 159 163 167 169 172 168 170 154 143 135 132 127 118 105 94 82 80 79 65
274 281 332 15 18 111 143 168 140 171 142 127 108 94 89 74 70 79 66 54 42 46 40 20 359 356 340 347 122 160 155 149 158 141 165 172 143 125 125 128 123 116 111 102 91 78 60 47 56
273 322 50 40 21 53 128 140 118 221 156 78 105 105 90 78 62 60 60 54 34 30 28 10 347 328 315 344 40 60 80 74 56 47 55 80 86 95 100 108 105 95 96 88 84 57 46 55 46
292 42 14 77 30 14 120 140 151 53 87 77 77 91 96 86 75 60 56 46 32 29 16 357 333 312 102 69 65 60 65 61 53 43 41 56 69 71 79 82 79 69 60 62 56 44 44 48 49
257 114 71 80 98 358 16 266 198 118 120 108 109 100 89 83 86 85 73 65 46 28 12 355 349 18 82 76 71 68 65 65 58 47 41 53 70 73 72 68 65 57 51 52 51 47 39 36 32
21 82 178 173 187 182 226 246 199 145 142 147 148 121 98 89 78 78 62 57 51 33 17 11 24 45 70 74 73 69 67 64 59 50 45 49 63 73 74 68 60 52 47 47 53 55 48 35 23
289 258 220 200 194 189 195 245 220 140 152 162 160 132 119 106 92 78 71 62 58 47 36 37 46 59 71 75 74 71 67 66 62 55 49 51 57 66 70 67 57 46 41 42 42 38 42 30 14
217 238 238 192 173 147 175 247 153 135 160 175 170 154 148 128 110 94 84 75 70 69 64 60 67 74 77 78 77 74 69 66 61 57 54 54 57 61 66 64 55 44 41 41 44 32 30 21 7
208 236 237 177 173 153 206 245 141 168 184 183 177 167 159 149 132 114 99 90 88 92 91 86 84 86 88 86 82 76 70 64 59 55 54 53 57 60 64 62 53 45 43 38 43 41 30 13 353
215 224 240 215 176 174 211 241 166 185 199 199 184 173 172 164 144 120 112 107 109 111 110 108 106 103 102 97 90 81 71 63 58 55 54 53 54 56 62 63 54 48 48 39 33 43 35 14 346
288 314 299 297 118 187 229 246 210 186 201 211 195 181 178 162 134 138 139 140 133 130 130 129 126 129 125 112 100 91 80 72 65 60 56 55 56 56 59 63 58 54 53 44 34 33 38 22 0
251 263 269 278 138 195 262 262 247 183 200 204 200 187 177 155 148 155 154 153 149 143 141 140 139 126 100 93 95 97 103 87 78 68 61 57 56 56 65 61 59 54 54 45 35 31 34 32 23
239 237 244 250 168 204 269 270 241 220 199 199 201 187 176 168 165 165 163 156 148 143 140 130 117 108 107 110 111 112 100 91 75 67 65 58 60 59 60 60 60 54 55 51 40 32 42 38 19
243 233 232 254 269 248 202 269 238 222 199 199 200 191 180 168 163 164 163 155 148 139 130 123 121 121 127 135 135 131 123 117 109 101 86 68 58 59 60 61 61 58 54 51 44 37 35 45 30
215 37 203 227 248 269 260 272 251 220 214 213 205 197 184 168 163 164 162 151 142 140 134 127 124 126 131 124 119 118 116 115 114 108 98 84 68 62 62 62 62 61 57 54 49 42 38 39 43
128 100 81 168 233 251 218 237 257 209 213 208 202 194 183 167 160 155 146 139 140 139 136 136 131 124 121 119 120 127 129 131 128 123 115 103 90 75 71 72 66 63 59 55 50 48 44 38 38
146 150 196 228 223 242 201 222 248 217 204 202 189 182 174 166 163 159 156 158 157 156 153 148 142 137 133 127 126 132 133 133 133 132 128 123 110 94 81 80 76 69 64 60 57 57 47 38 35
191 180 181 212 230 253 213 228 247 90 27 23 142 159 164 167 169 168 168 166 163 161 159 156 151 145 139 134 133 132 131 129 127 127 128 123 121 118 108 95 89 79 65 58 55 60 50 36 28
171 217 216 240 265 277 249 251 241 81 223 203 162 163 173 173 173 171 170 168 164 163 165 160 154 149 144 140 136 134 130 127 127 125 120 119 124 125 118 109 102 93 80 64 60 60 45 25 21
216 171 159 199 215 246 253 231 225 197 215 202 189 182 179 175 175 174 172 169 165 164 162 156 155 154 149 145 146 140 134 133 133 130 131 133 134 131 128 119 112 105 92 72 61 61 42 22 360
183 196 190 195 204 213 263 250 226 189 196 195 195 188 182 181 181 178 174 168 162 161 164 161 160 156 155 154 149 143 142 140 139 139 142 141 140 141 137 134 131 127 120 106 84 69 36 348 321
200 192 186 190 221 218 245 259 340 47 186 182 187 187 185 183 180 175 169 166 168 171 173 171 168 165 164 158 151 152 150 148 150 151 149 145 145 146 144 145 150 157 161 162 179 228 239 261 279